Total_Precipitation_Accumulation
0.10 0.12 0.14 0.14 0.16 0.18 0.20 0.24 0.27 0.21 0.11 0.06 0.05 0.04 0.05 0.06 0.06 0.08 0.08 0.07 0.10 0.13 0.15 0.17 0.21 0.25 0.30 0.36 0.45 0.56 0.66 0.77 0.88 1.00 1.11 1.21 1.29 1.32
0.08 0.09 0.10 0.11 0.12 0.14 0.16 0.19 0.23 0.26 0.17 0.06 0.05 0.05 0.07 0.07 0.07 0.10 0.09 0.11 0.13 0.13 0.15 0.18 0.20 0.23 0.26 0.30 0.34 0.41 0.48 0.57 0.66 0.79 0.93 1.06 1.18 1.29
0.08 0.09 0.09 0.10 0.11 0.11 0.12 0.14 0.17 0.22 0.21 0.09 0.06 0.09 0.10 0.09 0.10 0.12 0.11 0.11 0.10 0.11 0.15 0.18 0.21 0.24 0.27 0.30 0.33 0.36 0.41 0.47 0.56 0.66 0.77 0.88 0.98 1.05
0.07 0.07 0.08 0.09 0.10 0.11 0.11 0.12 0.14 0.18 0.25 0.21 0.11 0.12 0.12 0.14 0.17 0.18 0.16 0.15 0.13 0.12 0.16 0.20 0.24 0.26 0.28 0.31 0.35 0.40 0.43 0.46 0.49 0.53 0.60 0.68 0.78 0.87
0.04 0.05 0.06 0.07 0.08 0.08 0.08 0.10 0.13 0.18 0.26 0.30 0.20 0.17 0.15 0.15 0.18 0.19 0.18 0.16 0.15 0.16 0.20 0.22 0.24 0.27 0.31 0.35 0.39 0.42 0.45 0.48 0.50 0.52 0.54 0.59 0.67 0.77
0.06 0.06 0.05 0.04 0.04 0.04 0.07 0.10 0.16 0.21 0.25 0.31 0.30 0.23 0.22 0.19 0.21 0.18 0.16 0.15 0.16 0.17 0.21 0.25 0.29 0.33 0.35 0.38 0.41 0.44 0.46 0.50 0.55 0.60 0.65 0.68 0.72 0.77
0.05 0.04 0.02 0.02 0.02 0.04 0.09 0.14 0.21 0.29 0.38 0.46 0.44 0.37 0.31 0.26 0.22 0.22 0.27 0.27 0.26 0.23 0.24 0.27 0.32 0.37 0.40 0.42 0.45 0.46 0.48 0.52 0.60 0.69 0.75 0.79 0.81 0.83
0.04 0.03 0.02 0.02 0.02 0.05 0.09 0.19 0.34 0.47 0.58 0.62 0.59 0.50 0.37 0.32 0.32 0.37 0.46 0.54 0.48 0.29 0.32 0.35 0.36 0.43 0.43 0.45 0.51 0.54 0.55 0.58 0.62 0.67 0.71 0.74 0.76 0.79
0.03 0.02 0.02 0.01 0.02 0.03 0.07 0.18 0.29 0.40 0.48 0.51 0.50 0.39 0.35 0.35 0.47 0.63 0.66 0.70 0.57 0.37 0.43 0.49 0.41 0.43 0.44 0.48 0.57 0.57 0.54 0.54 0.56 0.59 0.60 0.60 0.60 0.62
0.02 0.02 0.02 0.02 0.02 0.07 0.15 0.24 0.20 0.17 0.22 0.27 0.31 0.33 0.37 0.43 0.60 0.83 0.90 0.89 0.71 0.53 0.50 0.55 0.41 0.38 0.40 0.44 0.51 0.50 0.46 0.46 0.49 0.52 0.52 0.51 0.50 0.52
0.01 0.01 0.03 0.03 0.05 0.18 0.30 0.33 0.22 0.13 0.15 0.23 0.32 0.36 0.37 0.40 0.47 0.74 0.93 0.99 0.84 0.55 0.47 0.55 0.51 0.47 0.45 0.42 0.44 0.48 0.46 0.44 0.44 0.46 0.48 0.48 0.48 0.51
0.02 0.02 0.03 0.06 0.13 0.25 0.30 0.32 0.26 0.18 0.21 0.24 0.26 0.27 0.26 0.30 0.39 0.58 1.00 1.39 1.17 0.81 0.50 0.60 0.62 0.65 0.75 0.48 0.42 0.45 0.45 0.43 0.42 0.43 0.45 0.47 0.49 0.50
0.06 0.03 0.03 0.10 0.20 0.24 0.23 0.20 0.25 0.33 0.29 0.26 0.28 0.30 0.31 0.33 0.37 0.48 0.79 1.42 1.65 1.19 0.69 0.97 1.03 0.79 0.89 0.65 0.47 0.46 0.48 0.52 0.53 0.51 0.48 0.48 0.47 0.51
0.07 0.04 0.06 0.14 0.15 0.13 0.11 0.16 0.28 0.29 0.23 0.31 0.37 0.38 0.38 0.41 0.46 0.54 0.63 0.80 1.08 1.17 0.86 1.07 1.28 0.94 0.94 0.71 0.48 0.47 0.53 0.65 0.72 0.68 0.60 0.55 0.50 0.51
0.07 0.10 0.12 0.10 0.07 0.06 0.09 0.15 0.16 0.15 0.26 0.46 0.53 0.53 0.55 0.61 0.66 0.68 0.65 0.65 0.68 0.70 0.72 0.77 0.94 0.91 0.93 0.84 0.63 0.58 0.68 0.73 0.85 0.89 0.78 0.61 0.52 0.49
0.09 0.09 0.06 0.04 0.04 0.06 0.10 0.10 0.09 0.16 0.38 0.57 0.62 0.60 0.62 0.67 0.73 0.81 0.88 0.83 0.81 0.69 0.61 0.58 0.64 0.81 0.84 0.66 0.72 0.74 0.83 1.05 1.16 1.17 0.92 0.70 0.58 0.52
0.11 0.04 0.02 0.03 0.04 0.06 0.09 0.10 0.11 0.19 0.31 0.42 0.55 0.61 0.60 0.66 0.74 0.84 0.93 0.92 0.84 0.69 0.56 0.46 0.43 0.47 0.56 0.60 0.62 0.64 0.80 0.98 1.16 1.18 0.94 0.82 0.74 0.64
0.09 0.04 0.05 0.07 0.10 0.13 0.15 0.15 0.16 0.23 0.37 0.53 0.62 0.70 0.79 0.85 0.91 0.91 0.90 0.85 0.73 0.57 0.45 0.36 0.32 0.31 0.29 0.30 0.50 0.71 0.78 0.93 1.06 0.98 0.71 0.71 0.83 0.75
0.08 0.09 0.13 0.16 0.19 0.20 0.23 0.27 0.31 0.36 0.54 0.72 0.81 0.88 0.96 1.00 0.98 0.90 0.77 0.63 0.48 0.34 0.24 0.19 0.26 0.44 0.42 0.28 0.27 0.55 0.90 0.96 0.84 0.76 0.63 0.62 0.82 0.80
0.12 0.18 0.23 0.26 0.26 0.28 0.32 0.41 0.49 0.54 0.65 0.79 0.88 0.96 1.08 1.12 0.97 0.78 0.60 0.46 0.34 0.20 0.11 0.06 0.13 0.40 0.69 0.65 0.51 0.53 0.69 0.91 0.94 0.84 0.64 0.56 0.65 0.64
0.13 0.20 0.24 0.27 0.30 0.33 0.39 0.49 0.63 0.76 0.84 0.95 1.00 1.08 1.12 1.04 0.80 0.54 0.35 0.21 0.18 0.16 0.13 0.07 0.08 0.20 0.40 0.41 0.36 0.39 0.54 0.69 0.84 1.00 0.82 0.62 0.50 0.44
0.09 0.15 0.19 0.23 0.31 0.39 0.47 0.59 0.75 0.85 0.93 1.01 1.07 1.09 0.96 0.79 0.58 0.35 0.23 0.20 0.17 0.16 0.14 0.07 0.04 0.07 0.17 0.32 0.34 0.33 0.40 0.41 0.39 0.41 0.59 0.80 0.98 1.08
0.08 0.14 0.18 0.24 0.34 0.46 0.57 0.65 0.76 0.88 1.00 1.09 1.05 0.90 0.70 0.49 0.31 0.24 0.22 0.21 0.20 0.15 0.11 0.07 0.04 0.05 0.12 0.22 0.29 0.30 0.30 0.29 0.24 0.28 0.50 0.57 0.73 0.95